一网星座-0257星 (ONEWEB-0257 )

导读

ONEWEB-0257是英国OneWeb星座下的低轨宽带通信卫星,于2021年7月1日发射。作为OneWeb全球卫星互联网组网的组成单元,它重约147.5公斤,设计寿命5年,配备Ku/Ka波段天线,单星通信能力约7.5Gbps,可提供最高50Mbps下载速率,为偏远、网络基础设施薄弱地区提供宽带互联网接入服务,助力OneWeb构建覆盖全球的卫星通信网络。

基本信息
目录编号:
48975
目录名称:
ONEWEB-0257
国际标识:
2021-060J
轨道中心:
EARTH
卫星名称:
一网星座-0257星
卫星全名:
一网星座-0257星 (ONEWEB-0257 )
卫星状态:
在轨 (已飞行1898 天)
发射日期:
2021-07-01 UTC
国别 :
英国 (GB)
星等 :
--
该卫星已列入 空间交会检测服务 Space Conjunction Data Service (SCDS) ,当前飞行风险评估等级: 无高风险
轨道信息
数据来源 国际轨道数据 AOE轨道数据
星历时间 2026-09-11T14:48:00+0800
6小时前
查看轨道信息
2026-09-10T07:00:00+0800
1天前
查看轨道信息
半长轴 7575.895km 7575.879km
偏心率 0.0002178 0.0002475
轨道倾角 87.914° 87.915°
近地点辐角 79.763° 71.708°
升交点赤经 211.674° 211.936°
平近点角 280.375° 131.896°
近地点 1196.107km 1195.866km
远地点 1199.409km 1199.618km
周期 109.373分钟 109.373分钟
每日圈数 13.16594 13.165983
详细信息
平衡模式:
三轴稳定
覆盖范围:
全球
运营商:
一网卫星公司
运营商所在国:
英国
制造商(研发单位):
一网卫星公司
制造商所在国:
英国
使用方式:
暂无
卫星简介
OneWeb卫星网络由648颗重约125公斤的微型卫星组成,运行在1200公里的轨道上。 每颗卫星都能够提供至少每秒8千兆位的吞吐量,以使用其高吞吐量的Ku频段有效载荷为家庭和移动平台提供互联网接入。该卫星仍在工作。
2D轨道图
3D轨道图
轨道高度分析图
轨道倾角分析图
轨道综合分析图
查看轨道综合分析图
与全量物体交会距离演化趋势
与全量物体交会风险概率演化趋势